When you browse on this site, cookies collect data to enhance your experience and personalize the content and advertising you see.
Visit our Privacy Policy to learn more. By continuing to use the site, you agree to this use of cookies and data.
  • In France
  • List of Countries
  • For 7 days
  • Water Temperature
  • Satellite Maps
  • Weather Map
  • Weather Widgets
  • user-avatar
    Login

    Hourly Weather Cimguda

    Today, 14 December, Friday

    Time Temperature Precipitation Wind Pressure Humidity
    00:00 -12°C° 0 mm 2 mps 578 mmHg 61%
    01:00 -12°C° 0 mm 2 mps 578 mmHg 60%
    02:00 -12°C° 0 mm 2 mps 579 mmHg 60%
    03:00 -12°C° 0 mm 2 mps 579 mmHg 57%
    04:00 -12°C° 0 mm 2 mps 579 mmHg 60%
    05:00 -12°C° 0 mm 2 mps 579 mmHg 63%
    06:00 -12°C° 0 mm 2 mps 579 mmHg 66%
    07:00 -12°C° 0 mm 2 mps 580 mmHg 66%
    08:00 -10°C° 0 mm 2 mps 580 mmHg 66%
    09:00 -9°C° 0 mm 2 mps 581 mmHg 66%
    10:00 -9°C° 0 mm 3 mps 581 mmHg 65%
    11:00 -8°C° 0 mm 3 mps 581 mmHg 63%
    12:00 -8°C° 0 mm 3 mps 582 mmHg 61%
    13:00 -8°C° 0 mm 3 mps 581 mmHg 62%
    14:00 -7°C° 0 mm 2 mps 581 mmHg 63%
    15:00 -8°C° 0 mm 2 mps 581 mmHg 64%
    16:00 -9°C° 0 mm 2 mps 581 mmHg 65%
    17:00 -10°C° 0 mm 2 mps 580 mmHg 66%
    18:00 -12°C° 0 mm 2 mps 580 mmHg 68%
    19:00 -12°C° 0 mm 2 mps 580 mmHg 68%
    20:00 -12°C° 0 mm 2 mps 580 mmHg 68%
    21:00 -13°C° 0 mm 2 mps 580 mmHg 68%
    22:00 -13°C° 0 mm 2 mps 580 mmHg 68%
    23:00 -13°C° 0 mm 2 mps 580 mmHg 69%

    Tomorrow, 15 December, Saturday

    Time Temperature Precipitation Wind Pressure Humidity
    00:00 -13°C° 0 mm 2 mps 580 mmHg 70%
    01:00 -13°C° 0 mm 2 mps 580 mmHg 70%
    02:00 -13°C° 0 mm 2 mps 580 mmHg 70%
    03:00 -13°C° 0 mm 2 mps 580 mmHg 70%
    04:00 -13°C° 0 mm 2 mps 580 mmHg 70%
    05:00 -13°C° 0 mm 2 mps 580 mmHg 70%
    06:00 -13°C° 0 mm 2 mps 580 mmHg 70%
    07:00 -12°C° 0 mm 2 mps 581 mmHg 69%
    08:00 -10°C° 0 mm 2 mps 582 mmHg 67%
    09:00 -9°C° 0 mm 2 mps 582 mmHg 65%
    10:00 -8°C° 0 mm 2 mps 583 mmHg 63%
    11:00 -6°C° 0 mm 2 mps 583 mmHg 62%
    12:00 -5°C° 0 mm 2 mps 583 mmHg 60%
    13:00 -5°C° 0 mm 2 mps 583 mmHg 62%
    14:00 -5°C° 0 mm 2 mps 583 mmHg 63%
    15:00 -5°C° 0 mm 2 mps 583 mmHg 65%
    16:00 -6°C° 0 mm 2 mps 582 mmHg 67%
    17:00 -7°C° 0 mm 2 mps 582 mmHg 69%
    18:00 -8°C° 0 mm 2 mps 582 mmHg 71%
    19:00 -8°C° 0 mm 2 mps 582 mmHg 71%
    20:00 -8°C° 0 mm 2 mps 582 mmHg 71%
    21:00 -7°C° 0 mm 2 mps 582 mmHg 72%
    22:00 -7°C° 0 mm 2 mps 581 mmHg 72%
    23:00 -8°C° 0 mm 2 mps 581 mmHg 73%

    Day after tomorrow, 16 December, Sunday

    Time Temperature Precipitation Wind Pressure Humidity
    00:00 -8°C° 0 mm 2 mps 581 mmHg 73%
    01:00 -7°C° 0 mm 2 mps 581 mmHg 74%
    02:00 -7°C° 0 mm 2 mps 581 mmHg 75%
    03:00 -7°C° 0 mm 2 mps 581 mmHg 75%
    04:00 -7°C° 0 mm 2 mps 581 mmHg 76%
    05:00 -7°C° 0 mm 2 mps 581 mmHg 77%
    06:00 -7°C° 0 mm 2 mps 581 mmHg 78%
    07:00 -6°C° 0 mm 1 mps 582 mmHg 78%
    08:00 -4°C° 0 mm 1 mps 582 mmHg 77%
    09:00 -3°C° 0 mm 1 mps 583 mmHg 76%
    10:00 -3°C° 0.1 mm 1 mps 583 mmHg 74%
    11:00 -2°C° 0.1 mm 1 mps 584 mmHg 73%
    12:00 -3°C° 0.1 mm 2 mps 584 mmHg 71%
    13:00 -1°C° 0.1 mm 1 mps 584 mmHg 71%
    14:00 -1°C° 0.1 mm 1 mps 584 mmHg 72%
    15:00 -1°C° 0.1 mm 1 mps 584 mmHg 73%
    16:00 -2°C° 0 mm 1 mps 583 mmHg 76%
    17:00 -3°C° 0 mm 1 mps 583 mmHg 78%
    18:00 -6°C° 0 mm 1 mps 583 mmHg 80%
    19:00 -6°C° 0 mm 1 mps 583 mmHg 80%
    20:00 -7°C° 0 mm 2 mps 583 mmHg 79%
    21:00 -7°C° 0 mm 2 mps 583 mmHg 79%
    22:00 -7°C° 0 mm 2 mps 583 mmHg 79%
    23:00 -7°C° 0 mm 2 mps 583 mmHg 80%

    17 December, Monday

    Time Temperature Precipitation Wind Pressure Humidity
    00:00 -7°C° 0 mm 2 mps 583 mmHg 80%
    01:00 -8°C° 0 mm 2 mps 583 mmHg 79%
    02:00 -8°C° 0 mm 2 mps 582 mmHg 78%
    03:00 -8°C° 0 mm 2 mps 582 mmHg 77%
    04:00 -8°C° 0 mm 2 mps 582 mmHg 77%
    05:00 -8°C° 0 mm 2 mps 582 mmHg 77%
    06:00 -9°C° 0 mm 2 mps 582 mmHg 77%
    07:00 -8°C° 0 mm 2 mps 582 mmHg 77%
    08:00 -7°C° 0 mm 2 mps 583 mmHg 77%
    09:00 -6°C° 0 mm 2 mps 583 mmHg 77%
    10:00 -5°C° 0 mm 2 mps 583 mmHg 76%
    11:00 -5°C° 0 mm 2 mps 583 mmHg 76%
    12:00 -4°C° 0 mm 2 mps 583 mmHg 75%
    13:00 -4°C° 0 mm 2 mps 583 mmHg 76%
    14:00 -4°C° 0 mm 2 mps 582 mmHg 77%
    15:00 -3°C° 0 mm 1 mps 582 mmHg 78%
    16:00 -4°C° 0 mm 1 mps 582 mmHg 78%
    17:00 -7°C° 0 mm 2 mps 581 mmHg 78%
    18:00 -8°C° 0 mm 2 mps 581 mmHg 79%
    19:00 -8°C° 0 mm 2 mps 581 mmHg 77%
    20:00 -8°C° 0 mm 2 mps 581 mmHg 75%
    21:00 -8°C° 0 mm 2 mps 581 mmHg 73%
    22:00 -8°C° 0 mm 2 mps 581 mmHg 73%
    23:00 -8°C° 0 mm 2 mps 581 mmHg 74%

    18 December, Tuesday

    Time Temperature Precipitation Wind Pressure Humidity
    00:00 -8°C° 0 mm 2 mps 580 mmHg 75%
    01:00 -7°C° 0 mm 1 mps 580 mmHg 75%
    02:00 -7°C° 0 mm 1 mps 580 mmHg 75%
    03:00 -7°C° 0 mm 1 mps 580 mmHg 74%
    04:00 -7°C° 0.1 mm 1 mps 580 mmHg 76%
    05:00 -6°C° 0.1 mm 1 mps 580 mmHg 77%
    06:00 -6°C° 0.1 mm 1 mps 580 mmHg 78%
    07:00 -6°C° 0.2 mm 1 mps 581 mmHg 80%
    08:00 -6°C° 0.2 mm 0 mps 581 mmHg 81%
    09:00 -5°C° 0.2 mm 0 mps 581 mmHg 82%
    10:00 -4°C° 0.2 mm 1 mps 581 mmHg 81%
    11:00 -4°C° 0.2 mm 1 mps 581 mmHg 80%
    12:00 -3°C° 0.2 mm 1 mps 581 mmHg 80%
    13:00 -3°C° 0.2 mm 1 mps 581 mmHg 81%
    14:00 -3°C° 0.2 mm 1 mps 581 mmHg 83%
    15:00 -4°C° 0.2 mm 1 mps 581 mmHg 84%
    16:00 -4°C° 0.2 mm 1 mps 581 mmHg 86%
    17:00 -6°C° 0.2 mm 1 mps 581 mmHg 89%
    18:00 -6°C° 0.2 mm 1 mps 581 mmHg 91%
    19:00 -6°C° 0.2 mm 0 mps 581 mmHg 91%
    20:00 -6°C° 0.2 mm 0 mps 581 mmHg 91%
    21:00 -6°C° 0.2 mm 0 mps 581 mmHg 91%
    22:00 -7°C° 0.1 mm 0 mps 581 mmHg 90%
    23:00 -7°C° 0.1 mm 0 mps 581 mmHg 90%

    19 December, Wednesday

    Time Temperature Precipitation Wind Pressure Humidity
    00:00 -7°C° 0.1 mm 0 mps 581 mmHg 90%
    01:00 -7°C° 0 mm 0 mps 581 mmHg 89%
    02:00 -7°C° 0 mm 0 mps 581 mmHg 89%
    03:00 -8°C° 0 mm 0 mps 581 mmHg 88%
    04:00 -8°C° 0 mm 0 mps 581 mmHg 87%
    05:00 -8°C° 0 mm 1 mps 580 mmHg 86%
    06:00 -9°C° 0 mm 1 mps 580 mmHg 86%
    07:00 -8°C° 0 mm 1 mps 581 mmHg 83%
    08:00 -7°C° 0 mm 1 mps 582 mmHg 81%
    09:00 -7°C° 0 mm 1 mps 582 mmHg 78%
    10:00 -6°C° 0 mm 1 mps 582 mmHg 76%
    11:00 -4°C° 0 mm 1 mps 583 mmHg 75%
    12:00 -3°C° 0 mm 1 mps 583 mmHg 73%
    13:00 -3°C° 0 mm 1 mps 583 mmHg 74%
    14:00 -4°C° 0 mm 1 mps 583 mmHg 75%
    15:00 -4°C° 0 mm 1 mps 583 mmHg 77%
    16:00 -6°C° 0 mm 1 mps 582 mmHg 79%
    17:00 -7°C° 0 mm 1 mps 582 mmHg 81%
    18:00 -8°C° 0 mm 1 mps 582 mmHg 83%
    19:00 -8°C° 0 mm 1 mps 582 mmHg 82%
    20:00 -9°C° 0 mm 1 mps 582 mmHg 80%
    21:00 -9°C° 0 mm 1 mps 582 mmHg 78%
    22:00 -9°C° 0 mm 1 mps 582 mmHg 78%
    23:00 -9°C° 0 mm 1 mps 582 mmHg 78%
    Show more